星链-1797 (STARLINK-1797 )

导读

STARLINK-1797是美国太空探索技术公司 SpaceX 星链星座的卫星,于2020年10月18日发射升空,属于星链互联网卫星项目。星链旨在构建全球卫星互联网,为全球偏远地区等提供宽带网络服务,该卫星承担为用户提供通信网络覆盖与互联网接入服务的任务,是星链星座组网进程中的组成单元。

基本信息
目录编号:
46698
目录名称:
STARLINK-1797
国际标识:
2020-073AE
轨道中心:
EARTH
卫星名称:
星链-1797
卫星全名:
星链-1797 (STARLINK-1797 )
卫星状态:
在轨 (已飞行2069 天)
发射日期:
2020-10-18 UTC
国别 :
美国 (US)
星等 :
--
轨道信息
数据来源 国际轨道数据
星历时间: 2026-06-18T08:49:59+0800
19小时前
查看轨道信息
半长轴: 6736.211km
偏心率: 0.0005647
轨道倾角: 53.040°
近地点辐角 79.700°
升交点赤经 77.957°
平近点角 280.466°
近地点: 354.27km
远地点: 361.878km
周期: 91.703分钟
每日圈数: 15.702879
详细信息
固有亮度:
5
最大亮度:
2.5
卫星平台:
Starlink V1.0
覆盖范围:
全球
运营商:
太空探索技术公司
运营商所在国:
美国
制造商(研发单位):
太空探索技术公司
制造商所在国:
美国
使用方式:
暂无
卫星简介
星链(Starlink)计划是由太空探索技术公司(SpaceX)提出的一个巨型低轨卫星互联网星座项目,计划在2019年至2024年间在太空搭建由约1.2万颗卫星组成的“星链”网络,其中1584颗将部署在地球上空550千米处的近地轨道,并从2020年开始工作。该卫星仍在工作。
2D轨道图
3D轨道图
轨道高度分析图
轨道倾角分析图
轨道综合分析图
查看轨道综合分析图